Regional Weather Roundup
Issued by NWS

Home | Current Version | Previous Version | Text Only | Print | Product List | Glossary Off
Versions: 1 2 3 4 5 6 7 8 9 10 11 12 13 14 15 16 17 18 19 20 21 22 23 24 25 26 27 28 29 30 31 32 33 34 35 36 37 38 39 40 41 42 43 44 45 46 47 48 49 50

000
ASUS43 KIND 190609
RWRIN

WEATHER ROUNDUP FOR INDIANA
NATIONAL WEATHER SERVICE INDIANAPOLIS IN
200 AM EDT THU OCT 19 2017

NOTE: "FAIR" INDICATES FEW OR NO CLOUDS BELOW 12,000 FEET WITH NO
SIGNIFICANT WEATHER AND/OR OBSTRUCTIONS TO VISIBILITY.

* - STATION DOES NOT REPORT WEATHER SUCH AS PRECIPITATION OR FOG.

+ - STATION NOT QUALITY CONTROLLED BY THE NATIONAL WEATHER SERVICE.
    USE DATA WITH CAUTION...ESPECIALLY DEWPOINT AND RELATIVE
    HUMIDITY OBSERVATIONS.

INZ001>003-010>013-019-020-190700-
NORTHWEST INDIANA

CITY           SKY/WX    TMP DP  RH WIND       PRES   REMARKS
GARY /AIRPORT/ CLEAR     58  45  60 S6        30.06F
KNOX *+        CLEAR     50  45  81 S6        30.09F
LA PORTE +     CLEAR     51  45  78 S3        30.09F
6HR MIN TEMP:  51; 6HR MAX TEMP:  60;

MICHIGAN CITY+ CLEAR     54  45  71 S9        30.07F
MONTICELLO +   CLEAR     52  44  74 S6        30.12S
6HR MIN TEMP:  51; 6HR MAX TEMP:  61;

RENSSELAER +   CLEAR     52  41  66 S6        30.10F
VALPARAISO     CLEAR     54  45  71 S6        30.08F
6HR MIN TEMP:  54; 6HR MAX TEMP:  62;


$$

LMZ046-743>745-190700-
SOUTHERN LAKE MICHIGAN

STATION/POSITION TIME  TEMP    WIND        PRES    WAVE
                       AIR SEA DIR/SP/G            HT
                 (UTC) (F)     (DEG/KT/KT) (MB)    (FT)
BURNS HARBOR     0540   58     190/ 12/ 16 1018.3F
MICHIGAN CITY    0540   58     180/ 12/ 14   N/A
5NW MICH CITY    0600   60 58  220/ 16/ 21   N/A     2

$$

INZ004-005-014>016-021>024-190700-
NORTH CENTRAL INDIANA

CITY           SKY/WX    TMP DP  RH WIND       PRES   REMARKS
GOSHEN         CLEAR     54  43  66 SW9       30.10S
6HR MIN TEMP:  54; 6HR MAX TEMP:  60;

LOGANSPORT +   CLEAR     46  43  87 S7        30.14R
PERU/GRISSOM   CLEAR     54  46  74 SW10      30.13R
6HR MIN TEMP:  52; 6HR MAX TEMP:  55;

SOUTH BEND     CLEAR     55  45  68 SW10      30.09F
6HR MIN TEMP:  55; 6HR MAX TEMP:  59;

WARSAW +       CLEAR     55  45  67 SW5       30.11F

$$

INZ006>009-017-018-025>027-190700-
NORTHEAST INDIANA

CITY           SKY/WX    TMP DP  RH WIND       PRES   REMARKS
AUBURN +       CLEAR     52  43  71 S5        30.12F
FORT WAYNE     PTCLDY    48  42  80 SW5       30.13F
6HR MIN TEMP:  47; 6HR MAX TEMP:  57;

HUNTINGTON +   CLEAR     53  44  72 SW7       30.13S
6HR MIN TEMP:  51; 6HR MAX TEMP:  59;

KENDALLVILLE + CLEAR     52  44  73 SW8       30.11F

$$

INZ028-029-035-036-043>045-051>053-190700-
WEST CENTRAL INDIANA

CITY           SKY/WX    TMP DP  RH WIND       PRES   REMARKS
CRAWFORDSVL +  CLEAR     50  46  87 S7        30.15S
GREENCASTLE +  CLEAR     54  45  71 SW3       30.17R
LAFAYETTE      CLEAR     51  45  79 S3        30.13S
6HR MIN TEMP:  47; 6HR MAX TEMP:  60;

TERRE HAUTE    CLEAR     55  46  71 S7        30.16S
6HR MIN TEMP:  54; 6HR MAX TEMP:  59;


$$

INZ030>032-037>040-046>048-054>057-064-065-190700-
CENTRAL INDIANA

CITY           SKY/WX    TMP DP  RH WIND       PRES   REMARKS
CP ATTERBURY + CLEAR     43  41  93 CALM      30.18S
FISHERS *+     PTCLDY    52  46  82 S6        30.16S
FRANKFORT +    PTCLDY    51  46  82 S5        30.15S
6HR MIN TEMP:  50; 6HR MAX TEMP:  57;

GREENWOOD *+   PTCLDY    54  47  78 S5        30.18S
6HR MIN TEMP:  54; 6HR MAX TEMP:  64;

INDIANAPOLIS   CLEAR     52  45  77 S7        30.17R
6HR MIN TEMP:  52; 6HR MAX TEMP:  61;

-EAGLE CREEK   CLEAR     50  44  80 S3        30.15S
6HR MIN TEMP:  49; 6HR MAX TEMP:  62;

KOKOMO +       CLEAR     51  45  79 S9        30.15S
6HR MIN TEMP:  49; 6HR MAX TEMP:  57;

MARION +       CLEAR     50  45  81 S9        30.15F
MT COMFORT *+  CLEAR     48  46  93 S6        30.18R
SHELBYVILLE    CLEAR     53  44  71 S7        30.17S
6HR MIN TEMP:  50; 6HR MAX TEMP:  60;

ZIONSVILLE +   CLEAR     51  45  79 S6        30.16S
6HR MIN TEMP:  50; 6HR MAX TEMP:  59;


$$

INZ033-034-041-042-049-050-058-059-190700-
EAST CENTRAL INDIANA

CITY           SKY/WX    TMP DP  RH WIND       PRES   REMARKS
MUNCIE         CLEAR     55  44  66 S6        30.17R
6HR MIN TEMP:  54; 6HR MAX TEMP:  61;

RICHMOND +     CLEAR     50  43  76 SW8       30.19F

$$

INZ060-061-067>069-081>083-085>088-190700-
SOUTHWEST INDIANA

CITY           SKY/WX    TMP DP  RH WIND       PRES   REMARKS
EVANSVILLE     CLEAR     54  46  74 S6        30.19R
6HR MIN TEMP:  51; 6HR MAX TEMP:  62;

HUNTINGBURG +  CLEAR     53  45  74 S5        30.19S
6HR MIN TEMP:  53; 6HR MAX TEMP:  60;

WASHINGTON +   CLEAR     45  43  93 S5        30.18R
6HR MIN TEMP:  45; 6HR MAX TEMP:  58;


$$

INZ062-063-066-070>080-084-089>092-190700-
SOUTH CENTRAL AND SOUTHEAST INDIANA

CITY           SKY/WX    TMP DP  RH WIND       PRES   REMARKS
BEDFORD +      CLEAR     52  43  71 S5        30.18S
BLOOMINGTON    CLEAR     50  43  77 CALM      30.18R
6HR MIN TEMP:  50; 6HR MAX TEMP:  59;

MADISON *+     CLEAR     46  45  93 CALM      30.22S
NORTH VERNON + CLEAR     46  43  87 CALM      30.19F
SEYMOUR +      CLEAR     45  41  87 S6        30.19S

$$





USA.gov is the U.S. government's official web portal to all federal, state and local government web resources and services.